User: anonymous   Login
Location: St Andrew
(49.4460°N, 2.5750°W)
Time: 17:17:03
(UTC+01:00)
Language:

Iridium 66 - Orbit

View from above orbital plane
View from above orbital plane
View from above satellite
View from above satellite

Ground track
Ground track

The orbit data is extracted from the following two-line orbital elements,

1 25289U 98021E   15125.23883208  .00000069  00000-0  17657-4 0  9999
2 25289 086.3998 187.2835 0002405 093.1321 327.3271 14.34216836894087
Epoch (UTC): 05 May 2015 05:43:55
Eccentricity: 0.0002405
inclination: 86.3998°
perigee height: 776 km
apogee height: 779 km
right ascension of ascending node: 187.2835°
argument of perigee: 93.1321°
revolutions per day: 14.34216836
mean anomaly at epoch: 327.3271°
orbit number at epoch: 89408

The dashed part of the orbit path shows where the satellite is in the earth's shadow,  

DLR